WORLDVIEW-3 (WV-3)

Last updated on Mon Jul 07 2025 00:02:28 GMT+0000 (Coordinated Universal Time)

1 40115U 14048A 25187.57676369 .00000750 00000+0 94207-4 0 9997 2 40115 97.8774 261.7644 0005255 17.9857 342.1543 14.85013632590615
UTC large
Height (km)
Speed (km/s)
/
Latitude / Longitude
Inclination (degrees)
Orbital Period (minutes)
Azimuth
Elevation
Range (km)
Doppler Factor

Next 0 passes for location: London (51.5072 / 0.1276)

Sorry there are no passes over London.